Location: Mohawk View
(42.7837°N, 73.7885°W)
Time: 07:39:38
(UTC+00:00)

Meteor 1-21 - Pass Details

Date: 17 June 2021
Orbit: 846 x 885 km, 81.2° (Epoch: 03 August)

Event Time Altitude Azimuth Distance (km) Brightness Sun altitude
Rises 01:12:16 0° 177° (S) 3,431 7.0 -6.2°
Reaches altitude 10° 01:14:43 10° 173° (S) 2,493 6.2 -6.5°
Maximum altitude 01:20:16 59° 95° (E) 985 4.3 -7.3°
Drops below altitude 10° 01:25:47 10° 18° (NNE) 2,487 7.0 -8.0°
Sets 01:28:14 0° 14° (NNE) 3,424 7.8 -8.4°
